High Desert Yearling Classic - Mcgil Nv. 200 Miles

Station: McGil Nevada - A Race

Distance: 200 Miles    

Release: 16-May-2018 07:00

Weather Release:    Arrival:

Wind at Release:     Wind at Arrival:

Temp at Release: °    Temp at Arrival: °

Lofts: 96

Birds: 394

Clocked: 376

Good Luck to Everyone!
Drops Pos Breeder Pigeon Name Color Sex Ent Arrival Speed To Win Eligible
1 Silver Dollar Loft - CO 0097-AU17-SILD BB H 1 10:44:43.00 1566.417 00:00:00 Yes
2 Ordonez Loft - CA 0424-AU17-FMT BBPD H 1 10:44:53.00 1565.256 00:00:10 Yes
2 Warbird Loft - CO 7331-AU17-FH Oklahoma Nikky BB H 1 10:44:53.00 1565.256 00:00:10 Yes
4 Silver Dollar Loft - CO 0085-AU17-SD BBSP H 2 10:44:56.00 1564.908 00:00:13 Yes
5 Dream Team - VT 0830-AU17-JCZL BB C 1 10:44:57.00 1564.792 00:00:14 Yes
5 Pelican Loft - ID 72741-AU17-ARPU BB H 1 10:44:57.00 1564.792 00:00:14 Yes
7 Frank Locante - WI 17030-AU17-FRLO BB H 1 10:44:59.00 1564.560 00:00:16 Yes
8 Silver Dollar Loft - CO 0093-AU17-SD BBWF C 3 10:45:00.00 1564.444 00:00:17 Yes
9 Silver Dollar Loft - CO 0079-AU17-SD BB C 4 10:45:02.00 1564.213 00:00:19 Yes
10 Racing Pigeon Mall - WA 0723-AU17-RPM BLK H 1 10:45:03.00 1564.097 00:00:20 Yes
11 Sam Haslem - UT 7946-AU17-CDR BB H 1 10:45:09.00 1563.402 00:00:26 Yes
12 Dream Team - VT 0669-AU17-JCZL BBWF C 2 10:45:14.00 1562.824 00:00:31 Yes
12 Powerstroke Loft - UT 0164-IF17-PS BB C 1 10:45:14.00 1562.824 00:00:31 Yes
14 Jimmy Zheng Loft - MS 0687-AU17-JZ BB C 1 10:45:15.00 1562.708 00:00:32 Yes
15 Adirondack Team - NY 66402-AU17-ARPU GRZ H 1 10:45:18.00 1562.361 00:00:35 Yes
15 Rich Fox Loft - PA 0880-IF17-LVC BC C 1 10:45:18.00 1562.361 00:00:35 Yes
17 Dave Naylor - BC 1102-CU17-MTNP BC C 1 10:45:20.00 1562.130 00:00:37 Yes
18 Rory Smith - UT 7382-AU17-CDR BB H 1 10:45:21.00 1562.015 00:00:38 Yes
19 Racing Pigeon Mall - WA 0733-AU17-RPM BLK C 2 10:45:22.00 1561.899 00:00:39 Yes
20 Rory Smith - UT 7370-AU17-CDR BB H 2 10:45:23.00 1561.784 00:00:40 Yes
21 Baldwin & Tilson - NC 7170-AU17-TENT BB C 1 10:45:24.00 1561.668 00:00:41 Yes
22 Western Loft - CA 2387-AU17-FCLM BB H 1 10:45:25.00 1561.553 00:00:42 Yes
22 Warbird Loft - CO 7348-AU17-FH Silvious BB C 2 10:45:25.00 1561.553 00:00:42 Yes
24 P N W Challenge - ID 7092-AU17-PNWC “555-211” BB H 1 10:45:26.00 1561.437 00:00:43 Yes
25 Papas Loft - ID 20341-AU17-ARPU BB C 1 10:45:28.00 1561.206 00:00:45 Yes
25 Stephen Brothers - CA 0767-AU17-COM BB C 1 10:45:28.00 1561.206 00:00:45 Yes
25 Sam Haslem - UT 7810-AU17-CDR BC C 2 10:45:28.00 1561.206 00:00:45 Yes
28 Warbird Loft - CO 7330-AU17-FH Quick Harry BC C 3 10:45:30.00 1560.976 00:00:47 Yes
29 Lucky Luke - ID 29392-AU17-FOYS BB H 1 10:45:31.00 1560.860 00:00:48 Yes
30 Ray Sackett - ID 0084-AU17-IDA BB C 1 10:45:37.00 1560.168 00:00:54 Yes
31 Michael Kelly - CA 1727-AU17-ARC DCWF H 1 10:45:41.00 1559.708 00:00:58 Yes
32 Papas Loft - ID 20338-AU17-ARPU BB H 2 10:45:42.00 1559.592 00:00:59 Yes
33 Scott/Carol Team - UT 0355-AU17-DWI BB C 1 10:45:44.00 1559.362 00:01:01 Yes
34 Aimhigh Loft - CA 0096-AU17-FMT Aim-394/1444 BC H 1 10:45:45.00 1559.247 00:01:02 Yes
35 Pigeon Village - ID 1207-AU17-IDA BB H 1 10:45:49.00 1558.787 00:01:06 Yes
36 Dave Naylor - BC 1417-CU17-MTNP BC C 2 10:45:50.00 1558.672 00:01:07 Yes
37 Bert Bruno - UT 36377-AU17-JEDD BB H 1 10:45:52.00 1558.442 00:01:09 Yes
38 Bob Lehman - PA 0835-IF17-PGC BB H 1 10:45:57.00 1557.867 00:01:14 Yes
39 Hi-Cal Connection - CA 0752-AU17-HICA BB H 1 10:46:00.00 1557.522 00:01:17 Yes
39 Roberts Family Loft - MA 0182-IF17-NWC BC C 1 10:46:00.00 1557.522 00:01:17 Yes
41 P N W Challenge - ID 7067-AU17-PNWC “724-350” BBWF C 2 10:46:03.00 1557.178 00:01:20 Yes
42 Silver Dollar Loft - CO 0069-AU17-SD BB C 5 10:46:05.00 1556.948 00:01:22 Yes
42 Haack Loft - CA 2794-AU17-JEDD BBPD H 1 10:46:05.00 1556.948 00:01:22 Yes
44 Warbird Loft - CO 7354-AU17-FH Tsammy Mcgill BBWF H 4 10:46:11.00 1556.260 00:01:28 Yes
45 Papas Loft - ID 20335-AU17-ARPU BC C 3 10:46:12.00 1556.145 00:01:29 Yes
46 Yong Bi - TX 59037-AU17-ARPU BB C 1 10:46:16.00 1555.687 00:01:33 Yes
47 Slick Hills Loft - UT 46138-AU17-ARPU BB C 1 10:46:17.00 1555.572 00:01:34 Yes
- 1-DROP 10:46:16.00 1554.572
48 Baldwin & Tilson - NC 7177-AU17-TENT BBWT H 2 10:47:32.00 1547.026 00:02:49 Yes
49 Dick & Marty Lee - ID 1050-AU17-IDA DC C 1 10:47:34.00 1546.799 00:02:51 Yes
50 Ed Kehl - UT 0395-AU17-WFA DCPD C 1 10:47:46.00 1545.441 00:03:03 Yes
51 River Lane Loft - UT 16661-IF17-FOYS Meatlug BBPN C 1 10:47:55.00 1544.424 00:03:12 Yes
52 Hi-Cal Connection - CA 0754-AU17-HICA BC C 2 10:48:11.00 1542.619 00:03:28 Yes
53 Sam Haslem - UT 7809-AU17-CDR BB H 3 10:48:13.00 1542.394 00:03:30 Yes
53 Team Elite - IL 0593-AU17-ELIT BCSP H 1 10:48:13.00 1542.394 00:03:30 Yes
55 Steve Beier - AZ 0719-AU17-IDA BB C 1 10:48:17.00 1541.943 00:03:34 Yes
56 Joe Zarachowicz - MD 2244-IF17-CCC SLT C 1 10:48:18.00 1541.831 00:03:35 Yes
57 Haack Loft - CA 1371-AU17-GHC BBWF H 2 10:48:20.00 1541.606 00:03:37 Yes
57 Rodriguez Loft - TX 17689-AU17-WIN Rocket Red BB H 1 10:48:20.00 1541.606 00:03:37 Yes
59 Best Loft - IL 1666-AU17-CHI BB C 1 10:48:21.00 1541.493 00:03:38 Yes
60 Rangel/Flores/Fregos - UT 0173-AU17-WFA BCWF H 1 10:48:22.00 1541.381 00:03:39 Yes
61 Liab Family Loft - MN 0486-AU17-LIAB Kronick BC C 1 10:48:24.00 1541.156 00:03:41 Yes
62 Stella Loft - TX 10999-AU17-AA BB H 1 10:48:25.00 1541.043 00:03:42 Yes
62 F & D Lofts - AB 17251-AU17-FD BB C 1 10:48:25.00 1541.043 00:03:42 Yes
62 Warbird Loft - CO 7339-AU17-FH Leviathan DCSP C 5 10:48:25.00 1541.043 00:03:42 Yes
65 Warbird Loft - CO 7341-AU17-FH Txbig BB C 6 10:48:26.00 1540.931 00:03:43 Yes
66 Slick Hills Loft - UT 46135-AU17-ARPU BC C 2 10:48:28.00 1540.706 00:03:45 Yes
66 Jones Boys - UT 1181-AU17-SLI BB H 1 10:48:28.00 1540.706 00:03:45 Yes
66 Warbird Loft - CO 7329-AU17-FH Bzxh BC C 7 10:48:28.00 1540.706 00:03:45 Yes
69 Marian Taloi - OR 0233-AU17-OTC The ,, Dicaprio " Cross BB H 1 10:48:29.00 1540.594 00:03:46 Yes
70 Silver Dollar Loft - CO 0080-AU17-SD BB H 6 10:48:30.00 1540.481 00:03:47 Yes
70 Jones Boys - UT 1188-AU17-SLI BC C 2 10:48:30.00 1540.481 00:03:47 Yes
70 High Plains Drifter Loft - CO 0028-AU17-HPDL DC C 1 10:48:30.00 1540.481 00:03:47 Yes
73 King Of The Hill - AZ 0994-AU17-PSC BC H 1 10:48:31.00 1540.369 00:03:48 Yes
74 Marian Taloi - OR 11074-AU17-JEDD The Good ,,kannibaal" BC C 2 10:48:33.00 1540.144 00:03:50 Yes
75 Slick Hills Loft - UT 46137-AU17-ARPU BC C 3 10:48:34.00 1540.032 00:03:51 Yes
75 Joe Zarachowicz - MD 2267-IF17-CCC BBSP H 2 10:48:34.00 1540.032 00:03:51 Yes
77 B S Syndicate - IL 0033-AU17-BEKO BB H 1 10:48:36.00 1539.808 00:03:53 Yes
78 Ed Kehl - UT 0391-AU17-WFA BC C 2 10:48:37.00 1539.695 00:03:54 Yes
79 Rodriguez Loft - TX 17692-AU17-WIN Red Nation BB C 2 10:48:38.00 1539.583 00:03:55 Yes
80 Baldwin & Tilson - NC 7178-AU17-TENT BBWF C 3 10:48:42.00 1539.134 00:03:59 Yes
81 Ray Sackett - ID 0083-AU17-IDA BC C 2 10:48:45.00 1538.798 00:04:02 Yes
82 Warbird Loft - CO 7350-AU17-FH Bzxhiii BB H 8 10:48:53.00 1537.901 00:04:10 Yes
83 Dream Team - VT 0575-AU17-JCZL BB H 3 10:48:55.00 1537.677 00:04:12 Yes
84 Woodland Loft - NY 2243-IF17-EMC RC H 1 10:48:56.00 1537.566 00:04:13 Yes
85 Silver Dollar Loft - CO 0146-AU17-SD BB C 7 10:49:02.00 1536.894 00:04:19 Yes
86 Silver Dollar Loft - CO 0001-AU17-SD BB H 8 10:49:03.00 1536.782 00:04:20 Yes
87 Hollywood Lou Loft - FL 0130-AU17-HL BB H 1 10:49:29.00 1533.880 00:04:46 Yes
88 Jimmy Zheng Loft - MS 0652-AU17-JZ BB C 2 10:49:30.00 1533.769 00:04:47 Yes
89 Racing Pigeon Mall - WA 0728-AU17-RPM BB C 3 10:49:39.00 1532.767 00:04:56 Yes
90 Pelican Loft - ID 72762-AU17-ARPU DCWF H 2 10:49:43.00 1532.322 00:05:00 Yes
91 Silver Dollar Loft - CO 0098-AU17-SD BB C 9 10:49:44.00 1532.211 00:05:01 Yes
92 Warbird Loft - CO 7347-AU17-FH 2wxkaniii BB C 9 10:49:49.00 1531.656 00:05:06 Yes
93 Rebel Wings - UT 0363-AU17-DWI BC H 1 10:49:55.00 1530.989 00:05:12 Yes
94 Racing Pigeon Mall - WA 0727-AU17-RPM BB C 4 10:49:57.00 1530.768 00:05:14 Yes
95 B S Syndicate - IL 0014-AU17-BEKO BBSP C 2 10:50:36.00 1526.453 00:05:53 Yes
96 Aimhigh Loft - CA 0082-AU17-FMT Aim-633/7 BB H 2 10:52:02.00 1517.023 00:07:19 Yes
97 Slick Hills Loft - UT 46139-AU17-ARPU RC H 4 10:52:05.00 1516.697 00:07:22 Yes
98 Scott/Carol Team - UT 0361-AU17-DWI BB C 2 10:52:26.00 1514.413 00:07:43 Yes
99 Lucky Luke - ID 29396-AU17-FOYS BC H 2 10:53:25.00 1508.033 00:08:42 Yes

There are 396 bird records

Note: These Race Results are unofficial and subject to change until verified by the Race Committee and declared final.

Click for forecast!